Location: Allerheiligen
(48.5367°N, 8.1937°E)
Time: 12:30:40
(UTC+00:00)

Daily predictions for brighter satellites

Satellite Brightness Start Highest point End
(mag) Time Altitude Azimuth Time Altitude Azimuth Time Altitude Azimuth
MetOp-A 4.2 19:07:02 10° SSE 19:12:22 74° ENE 19:17:44 10° N
Cosmos 2360 Rocket 4.3 19:11:40 10° N 19:14:51 15° NNE 19:18:02 10° ENE
ATLAS 5 CENTAUR R/B 3.8 19:10:52 10° NW 19:16:07 36° WSW 19:22:05 10° S
Cosmos 921 Rocket 4.1 19:13:09 10° N 19:16:48 28° ENE 19:20:25 10° ESE
FALCON 9 DEB 3.1 19:15:02 10° SW 19:18:31 70° SSE 19:22:01 10° ENE
Cosmos 1707 Rocket 3.7 19:14:53 10° N 19:19:11 58° ENE 19:23:27 10° SSE
USA 186 2.9 19:20:57 10° SSW 19:22:59 30° W 19:25:02 10° NNW
Genesis I 3.2 19:19:21 10° NW 19:23:15 89° SW 19:27:07 10° SE
OBJECT-B 0.9 19:21:42 10° SSE 19:24:56 65° ENE 19:28:14 10° N
Cosmos 1980 Rocket 2.3 19:19:16 10° NNW 19:24:57 70° ENE 19:30:34 10° SE
CZ-2C R/B 4.0 19:24:16 10° NNE 19:28:42 46° E 19:33:02 10° S
Intercosmos 25 3.1 19:25:47 10° N 19:29:50 88° E 19:33:02 10° S
Cosmos 614 Rocket 4.3 19:25:27 10° SSW 19:30:37 76° WNW 19:35:52 10° NNE
Cosmos 1833 Rocket 2.8 19:31:03 10° SSW 19:36:40 82° WNW 19:42:21 10° NNE
NOSS 3-2 (A) 3.7 19:31:28 10° S 19:36:49 44° ESE 19:42:51 10° NE
Meteor 1-4 Rocket 2.4 19:34:09 10° N 19:37:37 64° ENE 19:41:02 10° SSE
Cosmos 1184 Rocket 3.6 19:34:42 10° SSE 19:37:41 32° E 19:40:40 10° NNE
SJ-6B 3.8 19:33:54 10° S 19:37:49 48° W 19:41:40 10° NNW
Cosmos 1862 4.2 19:34:06 10° SSW 19:38:05 54° WNW 19:42:06 10° N
Cosmos 1697 Rocket 3.3 19:32:43 10° NW 19:38:12 56° WSW 19:43:40 10° S
Sich 1 3.1 19:34:57 10° S 19:39:23 86° W 19:43:51 10° N
USA 267 3.9 19:34:26 10° ENE 19:40:05 30° SE 19:45:43 10° S
H-2A R/B 4.2 19:37:57 10° SSW 19:42:10 26° W 19:46:21 10° NW
SPOT 5 4.5 19:40:50 10° E 19:43:36 17° ENE 19:46:24 10° NNE
Cosmos 405 Rocket 3.9 19:42:21 12° SE 19:44:51 22° E 19:47:48 10° NE
Cosmos 389 Rocket 4.5 19:43:12 10° NNW 19:46:14 28° W 19:49:16 10° SSW
NOSS 3-2 (C) 4.0 19:41:18 10° S 19:46:16 32° ESE 19:51:49 10° NE
Cosmos 1862 Rocket 3.7 19:42:12 10° N 19:46:37 56° ENE 19:50:56 10° SSE
Cosmos 1437 Rocket 4.3 19:44:58 10° NNE 19:47:51 20° ENE 19:49:58 13° ESE
Cosmos 1812 4.0 19:44:17 10° NNW 19:47:55 41° W 19:51:32 10° SSW
SPOT 1/Viking Rocket 4.4 19:45:04 12° SE 19:49:20 36° ENE 19:54:04 10° N
Cosmos 1934 Rocket 4.1 19:44:22 10° S 19:50:41 68° E 19:57:00 10° NNE
Cosmos 2333 Rocket 4.4 19:49:08 10° N 19:52:02 14° NNE 19:54:56 10° ENE
Landsat 7 4.4 19:48:45 13° SE 19:52:41 42° ENE 19:57:09 10° N
Resurs 01 Rocket 1.6 19:48:17 10° SSE 19:52:42 82° ENE 19:57:10 10° NNW
USA 32 4.4 19:48:40 10° SSE 19:53:38 46° E 19:58:38 10° NNE
NOSS 2 (A) 4.0 19:52:22 10° NW 19:54:58 77° SW 19:56:24 21° SSE
Cosmos 676 Rocket 4.0 19:53:14 10° SSW 19:58:32 71° ESE 20:03:52 10° NNE
ERS-1 Rocket 4.1 19:56:12 14° ESE 19:59:37 30° ENE 20:03:56 10° N
Meteor 1-27 Rocket 4.4 19:53:59 10° NNW 19:59:50 62° W 20:05:41 10° S
GP-B 3.3 19:56:37 10° N 20:00:58 52° E 20:04:54 12° SSE
Okean 1 4.0 19:59:51 10° N 20:03:41 39° ENE 20:06:08 19° SE
Cosmos 192 4.5 20:01:08 10° NNW 20:06:02 74° WSW 20:10:31 12° SSE
SPOT 3 Rocket 4.2 20:03:29 10° S 20:08:35 56° W 20:13:43 10° NNW
BREEZE-M DEB (TANK) 1.7 20:08:05 10° W 20:10:51 73° N 20:11:49 25° E
Cosmos 468 Rocket 4.1 20:06:27 10° NNW 20:11:45 64° ENE 20:15:29 19° SE
Cosmos 1867 3.7 20:06:27 10° SW 20:11:54 80° NW 20:17:24 10° NE
Cosmos 1933 Rocket 3.8 20:10:14 14° SSE 20:13:47 48° E 20:18:05 10° NNE
Cosmos 1666 Rocket 4.2 20:10:02 10° SSW 20:14:17 57° WNW 20:18:35 10° N
SL-4 R/B 2.2 20:12:13 10° W 20:16:10 64° NNW 20:19:51 10° ENE
USA 234 3.6 20:10:46 12° E 20:16:45 62° NNE 20:23:11 10° NW
ATLAS 3B R/B 3.7 20:14:38 18° SE 20:16:47 21° ESE 20:21:32 10° ENE
IGS 5A 3.4 20:15:47 20° SSE 20:18:36 70° ENE 20:22:45 10° N
Meteor 2-4 Rocket 4.4 20:16:01 10° N 20:21:16 38° ENE 20:24:18 22° SE
MetOp-B 4.3 20:22:39 14° S 20:27:20 77° WSW 20:32:44 10° NNW
Cosmos 1954 Rocket 4.3 20:22:54 10° SSW 20:28:13 70° WNW 20:33:33 10° NNE
Spot 2 Rocket 3.5 20:25:35 19° SSE 20:29:21 87° ENE 20:34:28 10° NNW
SL-16 R/B 2.3 20:25:08 10° NNW 20:30:49 70° ENE 20:34:14 25° SE
CZ-2C R/B 4.3 20:26:16 10° N 20:30:55 34° WNW 20:35:34 10° SW
Cosmos 2219 Rocket 4.1 20:26:56 10° N 20:30:55 19° NE 20:34:53 10° E
Cosmos 1741 Rocket 4.1 20:27:52 10° S 20:32:56 54° ESE 20:38:05 10° NNE
Okean 1-7 3.2 20:29:50 10° N 20:34:07 56° ENE 20:36:00 30° SE
Cosmos 1703 Rocket 3.5 20:30:52 10° N 20:35:13 64° E 20:37:16 29° SSE
USA 238 DEB 3.7 20:29:12 10° SW 20:35:51 88° NW 20:42:51 10° NE
USA 238 3.7 20:29:19 10° SW 20:35:58 89° NW 20:42:57 10° NE
ATLAS 5 CENTAUR R/B 3.0 20:34:39 10° NNW 20:36:57 30° NE 20:39:34 17° E
Cosmos 1570 Rocket 4.3 20:34:48 10° NNW 20:40:02 55° ENE 20:42:42 28° SE
Meteor 1-18 Rocket 4.2 20:34:41 10° NNW 20:40:18 89° WSW 20:44:01 22° S
Cosmos 2082 Rocket 3.3 20:35:31 10° SW 20:41:00 48° NW 20:46:29 10° NNE
Meteor 1-25 Rocket 4.3 20:36:31 10° SSW 20:42:05 78° WNW 20:47:46 10° N
Terra 2.4 20:40:06 27° ESE 20:42:06 42° ENE 20:46:35 10° N
Lacrosse 5 2.0 20:38:10 10° WNW 20:43:12 64° SW 20:45:36 30° SSE
Cosmos 1238 Rocket 2.7 20:44:11 22° SSW 20:45:52 54° W 20:48:51 10° N
CENTAUR R/B 2.4 20:40:26 10° SSW 20:46:21 72° SE 20:53:25 10° NE
USA 276 2.0 20:43:27 10° WNW 20:46:38 79° SSW 20:47:07 60° SE
Cosmos 1605 Rocket 4.1 20:41:04 10° SSW 20:47:11 74° W 20:53:18 10° N
Cosmos 2100 Rocket 4.2 20:45:27 26° SSE 20:48:42 50° E 20:54:35 10° NNE
Cosmos 2208 Rocket 4.3 20:43:39 10° NNW 20:48:50 54° ENE 20:51:06 31° SE
Cosmos 1763 Rocket 3.6 20:44:11 10° NNW 20:49:31 75° WSW 20:52:27 27° S
Cosmos 2322 Rocket 2.2 20:43:52 10° NNW 20:49:36 79° ENE 20:52:29 31° SE
X-37B 1.6 20:47:52 10° W 20:50:24 33° SSW 20:50:24 33° SSW
Cosmos 921 Rocket 4.4 20:51:20 10° NW 20:55:06 32° W 20:57:44 16° SSW
FALCON 9 DEB 4.4 20:52:21 10° W 20:55:43 42° N 20:58:45 12° ENE
Cosmos 2173 Rocket 4.1 20:52:59 28° SSE 20:56:02 53° E 21:01:57 10° NNE
H-2A R/B 4.3 20:52:39 10° N 20:56:39 50° WNW 21:00:38 10° SW
Cosmos 2237 4.5 20:51:46 10° NNW 20:57:25 58° ENE 20:59:59 32° ESE
Cosmos 2084 Rocket 3.2 20:54:08 10° SW 20:58:19 75° SE 21:02:37 10° NE
Cosmos 2242 Rocket 4.1 20:54:58 10° NNW 20:59:18 54° W 21:01:46 24° SSW
Cosmos 2360 Rocket 2.5 20:54:36 10° NNW 21:00:12 55° ENE 21:02:39 32° ESE
Cosmos 1500 3.2 20:59:53 51° ESE 21:00:13 53° E 21:03:54 10° NNE
Cosmos 44 3.3 20:59:46 10° NW 21:04:42 80° SW 21:06:35 40° SSE
SWARM C 4.3 21:02:54 10° N 21:06:14 88° E 21:06:30 74° S
SWARM A 4.1 21:02:58 10° N 21:06:20 83° W 21:06:42 68° SSW
Cosmos 1980 Rocket 4.2 21:04:13 10° NW 21:08:23 21° W 21:12:30 10° SSW
SAR-Lupe-2 3.4 21:06:13 10° NNE 21:09:49 77° ESE 21:10:12 67° SSE
Cosmos 1666 3.8 21:11:57 30° ENE 21:11:57 30° ENE 21:14:41 10° NNE
Cosmos 1459 Rocket 4.0 21:08:09 30° SSE 21:11:26 68° E 21:17:46 10° NNE
Cosmos 2016 Rocket 4.3 21:13:22 35° SE 21:15:42 52° E 21:21:52 10° NNE
Cosmos 1242 Rocket 3.9 21:13:38 10° N 21:16:36 27° ENE 21:16:36 27° ENE
COSMOS 2428 4.0 21:14:08 10° NNW 21:19:14 31° NE 21:21:52 22° E
Cosmos 405 Rocket 4.5 21:17:26 10° SW 21:20:41 29° WNW 21:24:02 10° N
SL-27 R/B 2.9 21:20:03 43° WSW 21:20:47 56° WNW 21:24:04 10° NNE
Cosmos 2221 Rocket 3.7 21:16:22 10° N 21:20:49 59° ENE 21:21:32 52° ESE
Cosmos 2346 Rocket 4.5 21:15:03 10° N 21:21:04 63° ENE 21:23:12 40° SE
SPOT 5 2.8 21:19:54 42° SSW 21:21:12 64° WSW 21:25:36 10° NNW
Cosmos 967 Rocket 4.5 21:17:00 10° NW 21:23:24 79° WSW 21:25:52 40° SSE
USA 267 3.2 21:17:05 10° NE 21:23:39 88° SE 21:30:13 10° WSW
Cosmos 1437 Rocket 4.0 21:20:46 10° NNW 21:24:14 34° W 21:25:21 28° SW
NOSS 3-2 (A) 4.4 21:21:54 10° WSW 21:27:36 48° NW 21:34:11 10° NE
Cosmos 540 Rocket 3.6 21:23:01 10° NNW 21:28:10 68° WSW 21:29:45 43° S
Lacrosse 4 Rocket 2.9 21:29:56 24° ENE 21:29:56 24° ENE 21:32:00 10° NE
Cosmos 2237 Rocket 4.2 21:24:52 10° N 21:28:48 19° NE 21:32:28 11° E
ERBS 4.4 21:26:23 10° NW 21:29:07 23° NNE 21:30:18 19° NE
Resurs 01 Rocket 4.3 21:28:01 10° WSW 21:29:48 12° W 21:31:34 10° WNW
Cosmos 1271 Rocket 4.3 21:32:38 10° NNE 21:35:26 24° ENE 21:35:26 24° ENE
NOSS 3-2 (C) 4.0 21:30:58 10° WSW 21:36:44 60° NW 21:43:26 10° NE
Cosmos 2333 Rocket 2.8 21:32:16 10° NNW 21:37:50 47° NE 21:39:44 35° ESE
ERS-1 Rocket 3.8 21:36:12 29° SSW 21:38:15 42° W 21:43:02 10° NNW
Cosmos 2061 Rocket 3.9 21:37:27 42° S 21:39:39 75° E 21:45:51 10° NNE
Meteor 1-11 Rocket 3.7 21:42:34 49° S 21:44:08 75° E 21:49:57 10° NNE
Meteor 1-5 Rocket 4.4 21:42:12 32° SSW 21:45:08 77° WNW 21:51:04 10° N
Cosmos 841 Rocket 4.1 21:41:08 10° NNW 21:46:08 47° WSW 21:47:34 37° SSW
Cosmos 1066 Rocket 4.2 21:40:55 10° N 21:46:36 68° ENE 21:47:48 53° SE
Cosmos 2233 Rocket 4.3 21:45:58 42° SE 21:47:16 48° E 21:53:18 10° NNE
Cosmos 1802 Rocket 4.0 21:45:24 35° SSW 21:48:21 82° W 21:54:43 10° N
Okean 3 3.9 21:48:16 10° NNW 21:52:29 53° W 21:52:58 50° WSW
COSMOS 2487 4.0 21:55:26 28° NE 21:55:26 28° NE 21:57:15 10° NNE
SL-4 R/B 2.3 21:52:21 10° WNW 21:55:57 54° N 21:55:57 54° N
Thor Agena Rocket 4.1 21:53:38 10° NNE 21:58:13 41° E 21:58:13 41° E
USA 234 3.4 21:58:07 45° S 21:59:50 58° SW 22:06:17 10° WNW
Cosmos 1816 Rocket 4.4 21:55:13 10° N 22:01:31 83° W 22:03:14 51° S
Spot 4 3.9 22:03:39 61° E 22:03:59 63° ENE 22:08:47 10° N
Iridium 4 Rocket 3.9 22:05:13 38° WSW 22:05:57 41° W 22:09:55 10° N
ATLAS 3B R/B 2.5 22:01:44 19° SW 22:06:37 88° NW 22:13:20 10° NE
Cosmos 1536 3.2 22:12:11 61° NW 22:12:11 61° NW 22:15:51 10° N
Meteor 1-23 Rocket 4.2 22:06:56 10° NNW 22:12:47 82° W 22:13:53 60° S
SL-16 R/B 3.9 22:10:12 10° NW 22:14:22 21° W 22:16:06 18° SW
Cosmos 2219 Rocket 2.1 22:10:09 10° NNW 22:15:52 77° ENE 22:16:46 62° ESE
Cosmos 1674 Rocket 3.6 22:14:03 10° NNW 22:18:08 74° NW 22:18:08 74° NW
NOSS 0 Rocket 4.5 22:12:33 10° NNW 22:18:39 51° NE 22:20:35 38° E
Terra 3.3 22:19:00 25° WSW 22:19:59 27° W 22:24:01 10° NW
Cosmos 2322 3.6 22:17:18 10° NNW 22:22:57 70° WSW 22:23:35 64° SSW
Lacrosse 5 4.1 22:22:57 10° W 22:24:47 13° WSW 22:24:47 13° WSW
Cosmos 1833 4.4 22:24:31 42° SW 22:26:25 69° WNW 22:32:06 10° NNE
Tsikada Rocket 4.2 22:20:25 10° NNW 22:26:41 63° W 22:28:15 48° SSW
Cosmos 1503 Rocket 4.3 22:29:01 52° E 22:29:01 52° E 22:33:51 10° NNE
MOS 1-B Rocket 3.8 22:23:00 10° NNE 22:28:39 79° WNW 22:29:54 56° SW
Okean 2 4.2 22:28:28 10° N 22:31:45 45° NE 22:31:45 45° NE
Cosmos 2322 Rocket 4.0 22:29:09 10° WNW 22:32:58 19° W 22:34:18 17° WSW
Meteor 2-11 Rocket 4.3 22:32:28 64° SSE 22:33:17 74° E 22:39:23 10° NNE
Geosat 3.9 22:33:13 77° SW 22:33:20 78° WSW 22:38:24 10° NNW
Cosmos 1486 Rocket 3.9 22:33:50 77° SW 22:34:12 84° WNW 22:39:27 10° NNE
ALOS 2 2.9 22:35:05 59° NE 22:35:05 59° NE 22:39:02 10° N
Cosmos 489 Rocket 4.4 22:28:21 10° NNW 22:34:42 82° WSW 22:35:44 64° S
Cosmos 1733 Rocket 3.8 22:34:35 46° W 22:34:46 46° WNW 22:39:03 10° N
CENTAUR R/B 4.0 22:31:43 10° W 22:37:39 38° NNW 22:44:35 10° NE
Cosmos 2333 4.4 22:32:02 10° NW 22:37:40 55° WSW 22:38:07 54° SW
Cosmos 1975 4.1 22:43:45 36° NE 22:43:45 36° NE 22:46:25 10° NNE
SL-16 R/B 4.1 22:38:25 10° N 22:42:59 24° NE 22:46:19 15° E
Cosmos 2360 Rocket 3.5 22:39:09 10° NW 22:43:52 27° WSW 22:44:24 27° WSW
Meteor 1-21 4.3 22:41:31 10° N 22:47:19 64° ENE 22:47:53 60° ESE
Cosmos 773 Rocket 4.2 22:49:31 10° NNW 22:54:38 59° ENE 22:54:49 59° ENE
Cosmos 968 Rocket 3.7 22:58:02 59° W 22:58:30 62° WNW 23:03:37 10° NNE
Helios 1A 3.9 22:59:36 42° NE 22:59:36 42° NE 23:03:05 10° N
Cosmos 1782 Rocket 4.2 23:00:31 52° NNE 23:00:31 52° NNE 23:03:55 10° NNE
Cosmos 2297 Rocket 3.3 23:02:01 30° E 23:02:01 30° E 23:06:09 10° NE
Cosmos 44 Rocket 3.8 22:56:47 10° NW 23:00:56 51° W 23:00:56 51° W
Cosmos 1743 4.0 23:03:24 37° NW 23:03:24 37° NW 23:06:20 10° N
Meteor 2-9 Rocket 4.1 23:03:16 73° ESE 23:03:25 73° E 23:09:11 10° NNE
COSMOS 2428 2.9 22:58:14 10° NW 23:03:50 55° WSW 23:03:51 55° WSW
Cosmos 1980 3.7 22:59:53 10° NNW 23:05:35 72° ENE 23:06:08 66° E
USA 267 4.1 23:00:10 10° ENE 23:06:24 49° NNW 23:12:39 10° W
Lacrosse 4 Rocket 2.9 23:06:12 31° WNW 23:06:52 33° NW 23:10:41 10° NNE
Cosmos 1908 Rocket 4.2 23:07:34 51° NW 23:07:34 51° NW 23:11:21 10° N
Cosmos 2219 3.8 23:13:13 42° E 23:13:13 42° E 23:17:55 10° NE
Cosmos 2237 Rocket 2.1 23:08:11 10° NNW 23:13:52 77° ENE 23:14:16 73° ESE
Cosmos 2333 Rocket 3.2 23:16:50 10° NW 23:21:43 33° W 23:21:43 33° W
Timation 2 Rocket 3.7 23:26:06 75° SSE 23:26:28 78° ESE 23:32:30 10° NNE
Meteor 1-12 Rocket 4.5 23:28:45 58° ESE 23:29:09 60° E 23:35:04 10° NNE
Cosmos 1975 Rocket 3.9 23:26:49 10° NNW 23:30:20 45° NW 23:30:20 45° NW
Cosmos 1300 Rocket 4.4 23:34:20 46° NE 23:34:20 46° NE 23:37:35 10° NNE
Cosmos 1354 Rocket 4.4 23:33:47 52° W 23:34:21 54° WNW 23:39:36 10° NNE
Cosmos 1464 Rocket 4.0 23:39:31 60° WSW 23:40:24 68° WNW 23:46:34 10° N
Helios 1B rocket 3.9 23:42:18 10° NNE 23:45:01 31° ENE 23:45:01 31° ENE
CZ-2D R/B 4.2 23:43:53 10° NE 23:47:14 16° E 23:48:16 15° E
Cosmos 1707 4.1 23:44:47 10° NNW 23:47:18 37° NNW 23:47:18 37° NNW
Okean 2 Rocket 3.5 23:50:15 62° N 23:50:15 62° N 23:54:03 10° N
Okean 1 Rocket 4.4 23:51:41 31° ENE 23:51:41 31° ENE 23:54:58 10° NNE
Cosmos 2227 Rocket 2.3 23:51:25 63° ESE 23:51:25 63° ESE 23:56:58 10° NNE
Nadezhda 4 Rocket 3.9 23:45:08 10° NNW 23:51:23 69° W 23:52:00 64° SW
Cosmos 1777 Rocket 3.9 23:52:43 87° N 23:52:43 87° N 23:57:58 10° NNE
SJ 16-02 2.9 23:55:07 26° ENE 23:55:07 26° ENE 23:58:01 10° NE
Cosmos 1025 Rocket 3.7 23:50:03 10° NNW 23:53:18 50° NNW 23:53:18 50° NNW
